Location: Mohawk View
(42.7837°N, 73.7885°W)
Time: 03:04:45
(UTC+00:00)

GPS 2-04 Rocket1 - Visible Passes

Search period start: 17 October 2021 00:00
Search period end: 27 October 2021 00:00
Orbit: 415 x 536 km, 35.6° (Epoch: 16 October)

Date Brightness Start Highest point End Pass type
(mag) Time Alt. Az. Time Alt. Az. Time Alt. Az.
17 Oct 5.3 00:27:43 10° SW 00:28:01 10° SSW 00:28:01 10° SSW visible
17 Oct 5.2 23:56:36 10° SW 23:57:38 11° SSW 23:58:40 10° S visible
18 Oct 5.3 23:25:33 10° SW 23:26:53 12° SSW 23:28:12 10° S visible
19 Oct 5.3 22:54:33 10° SW 22:56:07 12° SSW 22:57:40 10° S visible
